User: anonymous   Login
Location: The Jewett Observatory
(46.7288°N, 117.1525°W)
Time: 19:28:56
(UTC-07:00)
Language:

Cosmos 1844 Rocket - Orbit

View from above orbital plane
View from above orbital plane
View from above satellite
View from above satellite

Ground track
Ground track

The orbit data is extracted from the following two-line orbital elements,

1 17974U 87041B   16206.57244301 -.00000079  00000-0 -15422-4 0  9995
2 17974  71.0066 240.0811 0013843 183.3702 339.3537 14.17207680510262
Epoch (UTC): 24 July 2016 13:44:19
Eccentricity: 0.0013843
inclination: 71.0066°
perigee height: 825 km
apogee height: 845 km
right ascension of ascending node: 240.0811°
argument of perigee: 183.3702°
revolutions per day: 14.17207680
mean anomaly at epoch: 339.3537°
orbit number at epoch: 51026

The dashed part of the orbit path shows where the satellite is in the earth's shadow,  

DLR